Track ORBCOMM FM116 now! 10-day predictions ORBCOMM FM116 is classified as:
1 41189U 15081L 22175.55605858 .00000299 00000-0 10660-3 0 9993 2 41189 47.0023 281.9902 0001391 130.4208 229.6798 14.55114741346979